Time,TemperatureF,DewpointF,PressureIn,WindDirection,WindDirectionDegrees,WindSpeedMPH,WindSpeedGustMPH,Humidity,HourlyPrecipIn,Conditions,Clouds,dailyrainin,SolarRadiationWatts/m^2,SoftwareType,DateUTC
2013-05-24 00:01:00,59.0,17.0,-100.00,SSW,212,0.0,6.0,19,0.00,,,0.00,0.000000,,2013-05-24 07:01:00,
2013-05-24 00:11:00,59.0,17.0,-100.00,SSW,212,0.0,6.0,19,0.00,,,0.00,0.000000,,2013-05-24 07:11:00,
2013-05-24 00:22:00,59.0,17.0,-100.00,SSW,212,0.0,6.0,19,0.00,,,0.00,0.000000,,2013-05-24 07:22:00,
2013-05-24 00:52:00,60.0,16.0,-100.00,South,184,0.0,5.0,18,0.00,,,0.00,0.000000,,2013-05-24 07:52:00,
2013-05-24 01:02:00,60.0,16.0,-100.00,South,184,0.0,5.0,18,0.00,,,0.00,0.000000,,2013-05-24 08:02:00,
2013-05-24 01:11:00,60.0,16.0,-100.00,South,184,0.0,5.0,18,0.00,,,0.00,0.000000,,2013-05-24 08:11:00,
2013-05-24 01:22:00,60.0,16.0,-100.00,South,184,0.0,5.0,18,0.00,,,0.00,0.000000,,2013-05-24 08:22:00,
2013-05-24 01:52:00,59.0,16.0,-100.00,SE,141,0.0,4.0,18,0.00,,,0.00,0.000000,,2013-05-24 08:52:00,
2013-05-24 02:01:00,59.0,16.0,-100.00,SE,141,0.0,4.0,18,0.00,,,0.00,0.000000,,2013-05-24 09:01:00,
2013-05-24 02:11:00,59.0,16.0,-100.00,SE,141,0.0,4.0,18,0.00,,,0.00,0.000000,,2013-05-24 09:11:00,
2013-05-24 02:21:00,59.0,16.0,-100.00,SE,141,0.0,4.0,18,0.00,,,0.00,0.000000,,2013-05-24 09:21:00,
2013-05-24 02:53:00,59.0,16.0,-100.00,NE,49,6.0,13.0,18,0.00,,,0.00,0.000000,,2013-05-24 09:53:00,
2013-05-24 03:02:00,59.0,16.0,-100.00,NE,49,6.0,13.0,18,0.00,,,0.00,0.000000,,2013-05-24 10:02:00,
2013-05-24 03:12:00,59.0,16.0,-100.00,NE,49,6.0,13.0,18,0.00,,,0.00,0.000000,,2013-05-24 10:12:00,
2013-05-24 03:22:00,59.0,16.0,-100.00,NE,49,6.0,13.0,18,0.00,,,0.00,0.000000,,2013-05-24 10:22:00,
2013-05-24 03:52:00,57.0,11.0,-100.00,SW,231,3.0,13.0,16,0.00,,,0.00,0.000000,,2013-05-24 10:52:00,
2013-05-24 04:02:00,57.0,11.0,-100.00,SW,231,3.0,13.0,16,0.00,,,0.00,0.000000,,2013-05-24 11:02:00,
2013-05-24 04:12:00,57.0,11.0,-100.00,SW,231,3.0,13.0,16,0.00,,,0.00,0.000000,,2013-05-24 11:12:00,
2013-05-24 04:22:00,57.0,11.0,-100.00,SW,231,3.0,13.0,16,0.00,,,0.00,0.000000,,2013-05-24 11:22:00,
2013-05-24 04:52:00,56.0,10.0,-100.00,ESE,119,5.0,13.0,16,0.00,,,0.00,0.000000,,2013-05-24 11:52:00,
2013-05-24 05:01:00,56.0,10.0,-100.00,ESE,119,5.0,13.0,16,0.00,,,0.00,0.000000,,2013-05-24 12:01:00,
2013-05-24 05:11:00,56.0,10.0,-100.00,ESE,119,5.0,13.0,16,0.00,,,0.00,0.000000,,2013-05-24 12:11:00,
2013-05-24 05:21:00,56.0,10.0,-100.00,ESE,119,5.0,13.0,16,0.00,,,0.00,0.000000,,2013-05-24 12:21:00,
2013-05-24 05:52:00,56.0,10.0,-100.00,East,101,2.0,12.0,16,0.00,,,0.00,0.000000,,2013-05-24 12:52:00,
2013-05-24 06:02:00,56.0,10.0,-100.00,East,101,2.0,12.0,16,0.00,,,0.00,0.000000,,2013-05-24 13:02:00,
2013-05-24 06:11:00,56.0,10.0,-100.00,East,101,2.0,12.0,16,0.00,,,0.00,0.000000,,2013-05-24 13:11:00,
2013-05-24 06:21:00,56.0,10.0,-100.00,East,101,2.0,12.0,16,0.00,,,0.00,0.000000,,2013-05-24 13:21:00,
2013-05-24 06:52:00,57.0,7.0,-100.00,West,268,3.0,5.0,13,0.00,,,0.00,37.000000,,2013-05-24 13:52:00,
2013-05-24 07:01:00,57.0,7.0,-100.00,West,268,3.0,5.0,13,0.00,,,0.00,37.000000,,2013-05-24 14:01:00,
2013-05-24 07:11:00,57.0,7.0,-100.00,West,268,3.0,5.0,13,0.00,,,0.00,37.000000,,2013-05-24 14:11:00,
2013-05-24 07:21:00,57.0,7.0,-100.00,West,268,3.0,5.0,13,0.00,,,0.00,37.000000,,2013-05-24 14:21:00,
2013-05-24 07:52:00,60.0,14.0,-100.00,NNE,17,4.0,5.0,16,0.00,,,0.00,258.000000,,2013-05-24 14:52:00,
2013-05-24 08:02:00,60.0,14.0,-100.00,NNE,17,4.0,5.0,16,0.00,,,0.00,258.000000,,2013-05-24 15:02:00,
2013-05-24 08:11:00,60.0,14.0,-100.00,NNE,17,4.0,5.0,16,0.00,,,0.00,258.000000,,2013-05-24 15:11:00,
2013-05-24 08:21:00,60.0,14.0,-100.00,NNE,17,4.0,5.0,16,0.00,,,0.00,258.000000,,2013-05-24 15:21:00,
2013-05-24 08:52:00,64.0,12.0,-100.00,ENE,65,4.0,8.0,13,0.00,,,0.00,526.000000,,2013-05-24 15:52:00,
2013-05-24 09:03:00,64.0,12.0,-100.00,ENE,65,4.0,8.0,13,0.00,,,0.00,526.000000,,2013-05-24 16:03:00,
2013-05-24 09:12:00,64.0,12.0,-100.00,ENE,65,4.0,8.0,13,0.00,,,0.00,526.000000,,2013-05-24 16:12:00,
2013-05-24 09:22:00,64.0,12.0,-100.00,ENE,65,4.0,8.0,13,0.00,,,0.00,526.000000,,2013-05-24 16:22:00,
2013-05-24 09:52:00,70.0,17.0,-100.00,SSE,166,3.0,11.0,13,0.00,,,0.00,788.000000,,2013-05-24 16:52:00,
2013-05-24 10:02:00,70.0,17.0,-100.00,SSE,166,3.0,11.0,13,0.00,,,0.00,788.000000,,2013-05-24 17:02:00,
2013-05-24 10:12:00,70.0,17.0,-100.00,SSE,166,3.0,11.0,13,0.00,,,0.00,788.000000,,2013-05-24 17:12:00,
2013-05-24 10:22:00,70.0,17.0,-100.00,SSE,166,3.0,11.0,13,0.00,,,0.00,788.000000,,2013-05-24 17:22:00,
2013-05-24 10:52:00,69.0,14.0,-100.00,SSE,168,5.0,12.0,12,0.00,,,0.00,1016.000000,,2013-05-24 17:52:00,
2013-05-24 11:01:00,69.0,14.0,-100.00,SSE,168,5.0,12.0,12,0.00,,,0.00,1016.000000,,2013-05-24 18:01:00,
2013-05-24 11:11:00,69.0,14.0,-100.00,SSE,168,5.0,12.0,12,0.00,,,0.00,1016.000000,,2013-05-24 18:11:00,
2013-05-24 11:21:00,69.0,14.0,-100.00,SSE,168,5.0,12.0,12,0.00,,,0.00,1016.000000,,2013-05-24 18:21:00,
2013-05-24 11:52:00,72.0,12.0,-100.00,SSE,165,8.0,14.0,10,0.00,,,0.00,1185.000000,,2013-05-24 18:52:00,
2013-05-24 12:01:00,72.0,12.0,-100.00,SSE,165,8.0,14.0,10,0.00,,,0.00,1185.000000,,2013-05-24 19:01:00,
2013-05-24 12:11:00,72.0,12.0,-100.00,SSE,165,8.0,14.0,10,0.00,,,0.00,1185.000000,,2013-05-24 19:11:00,
2013-05-24 12:21:00,72.0,12.0,-100.00,SSE,165,8.0,14.0,10,0.00,,,0.00,1185.000000,,2013-05-24 19:21:00,
2013-05-24 12:52:00,74.0,3.0,-100.00,South,169,11.0,19.0,6,0.00,,,0.00,1284.000000,,2013-05-24 19:52:00,
2013-05-24 13:02:00,74.0,3.0,-100.00,South,169,11.0,19.0,6,0.00,,,0.00,1284.000000,,2013-05-24 20:02:00,
2013-05-24 13:11:00,74.0,3.0,-100.00,South,169,11.0,19.0,6,0.00,,,0.00,1284.000000,,2013-05-24 20:11:00,
2013-05-24 13:21:00,74.0,3.0,-100.00,South,169,11.0,19.0,6,0.00,,,0.00,1284.000000,,2013-05-24 20:21:00,
2013-05-24 13:52:00,76.0,4.0,-100.00,South,169,12.0,21.0,6,0.00,,,0.00,1313.000000,,2013-05-24 20:52:00,
2013-05-24 14:01:00,76.0,4.0,-100.00,South,169,12.0,21.0,6,0.00,,,0.00,1313.000000,,2013-05-24 21:01:00,
2013-05-24 14:11:00,76.0,4.0,-100.00,South,169,12.0,21.0,6,0.00,,,0.00,1313.000000,,2013-05-24 21:11:00,
2013-05-24 14:21:00,76.0,4.0,-100.00,South,169,12.0,21.0,6,0.00,,,0.00,1313.000000,,2013-05-24 21:21:00,
2013-05-24 14:53:00,78.0,6.0,-100.00,SSE,167,11.0,22.0,6,0.00,,,0.00,1273.000000,,2013-05-24 21:53:00,
2013-05-24 15:02:00,78.0,6.0,-100.00,SSE,167,11.0,22.0,6,0.00,,,0.00,1273.000000,,2013-05-24 22:02:00,
2013-05-24 15:12:00,78.0,6.0,-100.00,SSE,167,11.0,22.0,6,0.00,,,0.00,1273.000000,,2013-05-24 22:12:00,
2013-05-24 15:22:00,78.0,6.0,-100.00,SSE,167,11.0,22.0,6,0.00,,,0.00,1273.000000,,2013-05-24 22:22:00,
2013-05-24 15:52:00,79.0,6.0,-100.00,SSE,168,14.0,24.0,6,0.00,,,0.00,1162.000000,,2013-05-24 22:52:00,
2013-05-24 16:02:00,79.0,6.0,-100.00,SSE,168,14.0,24.0,6,0.00,,,0.00,1162.000000,,2013-05-24 23:02:00,
2013-05-24 16:11:00,79.0,6.0,-100.00,SSE,168,14.0,24.0,6,0.00,,,0.00,1162.000000,,2013-05-24 23:11:00,
2013-05-24 16:22:00,79.0,6.0,-100.00,SSE,168,14.0,24.0,6,0.00,,,0.00,1162.000000,,2013-05-24 23:22:00,
2013-05-24 16:52:00,79.0,10.0,-100.00,South,170,15.0,28.0,7,0.00,,,0.00,932.000000,,2013-05-24 23:52:00,
2013-05-24 17:01:00,79.0,10.0,-100.00,South,170,15.0,28.0,7,0.00,,,0.00,932.000000,,2013-05-25 00:01:00,
2013-05-24 17:11:00,79.0,10.0,-100.00,South,170,15.0,28.0,7,0.00,,,0.00,932.000000,,2013-05-25 00:11:00,
2013-05-24 17:21:00,79.0,10.0,-100.00,South,170,15.0,28.0,7,0.00,,,0.00,932.000000,,2013-05-25 00:21:00,
2013-05-24 17:52:00,78.0,9.0,-100.00,SSE,165,16.0,26.0,7,0.00,,,0.00,748.000000,,2013-05-25 00:52:00,
2013-05-24 18:01:00,78.0,9.0,-100.00,SSE,165,16.0,26.0,7,0.00,,,0.00,748.000000,,2013-05-25 01:01:00,
2013-05-24 18:11:00,78.0,9.0,-100.00,SSE,165,16.0,26.0,7,0.00,,,0.00,748.000000,,2013-05-25 01:11:00,
2013-05-24 18:22:00,78.0,9.0,-100.00,SSE,165,16.0,26.0,7,0.00,,,0.00,748.000000,,2013-05-25 01:22:00,
2013-05-24 18:52:00,76.0,20.0,-100.00,SW,226,13.0,27.0,12,0.00,,,0.00,237.000000,,2013-05-25 01:52:00,
2013-05-24 19:01:00,76.0,20.0,-100.00,SW,226,13.0,27.0,12,0.00,,,0.00,237.000000,,2013-05-25 02:01:00,
2013-05-24 19:11:00,76.0,20.0,-100.00,SW,226,13.0,27.0,12,0.00,,,0.00,237.000000,,2013-05-25 02:11:00,
2013-05-24 19:21:00,76.0,20.0,-100.00,SW,226,13.0,27.0,12,0.00,,,0.00,237.000000,,2013-05-25 02:21:00,
2013-05-24 19:52:00,70.0,22.0,-100.00,SW,216,19.0,28.0,16,0.00,,,0.00,34.000000,,2013-05-25 02:52:00,
2013-05-24 20:01:00,70.0,22.0,-100.00,SW,216,19.0,28.0,16,0.00,,,0.00,34.000000,,2013-05-25 03:01:00,
2013-05-24 20:11:00,70.0,22.0,-100.00,SW,216,19.0,28.0,16,0.00,,,0.00,34.000000,,2013-05-25 03:11:00,
2013-05-24 20:21:00,70.0,22.0,-100.00,SW,216,19.0,28.0,16,0.00,,,0.00,34.000000,,2013-05-25 03:21:00,
2013-05-24 20:53:00,69.0,21.0,-100.00,WSW,237,9.0,30.0,16,0.00,,,0.00,7.000000,,2013-05-25 03:53:00,
2013-05-24 21:02:00,69.0,21.0,-100.00,WSW,237,9.0,30.0,16,0.00,,,0.00,7.000000,,2013-05-25 04:02:00,
2013-05-24 21:12:00,69.0,21.0,-100.00,WSW,237,9.0,30.0,16,0.00,,,0.00,7.000000,,2013-05-25 04:12:00,
2013-05-24 21:23:00,69.0,21.0,-100.00,WSW,237,9.0,30.0,16,0.00,,,0.00,7.000000,,2013-05-25 04:23:00,
2013-05-24 21:52:00,68.0,20.0,-100.00,WNW,287,7.0,23.0,16,0.00,,,0.00,0.000000,,2013-05-25 04:52:00,
2013-05-24 22:02:00,68.0,20.0,-100.00,WNW,287,7.0,23.0,16,0.00,,,0.00,0.000000,,2013-05-25 05:02:00,
2013-05-24 22:12:00,68.0,20.0,-100.00,WNW,287,7.0,23.0,16,0.00,,,0.00,0.000000,,2013-05-25 05:12:00,
2013-05-24 22:22:00,68.0,20.0,-100.00,WNW,287,7.0,23.0,16,0.00,,,0.00,0.000000,,2013-05-25 05:22:00,
2013-05-24 22:52:00,68.0,19.0,-100.00,NW,304,9.0,17.0,15,0.00,,,0.00,0.000000,,2013-05-25 05:52:00,
2013-05-24 23:02:00,68.0,19.0,-100.00,NW,304,9.0,17.0,15,0.00,,,0.00,0.000000,,2013-05-25 06:02:00,
2013-05-24 23:12:00,68.0,19.0,-100.00,NW,304,9.0,17.0,15,0.00,,,0.00,0.000000,,2013-05-25 06:12:00,
2013-05-24 23:21:00,68.0,19.0,-100.00,NW,304,9.0,17.0,15,0.00,,,0.00,0.000000,,2013-05-25 06:21:00,
2013-05-24 23:52:00,67.0,21.0,-100.00,NW,309,16.0,28.0,17,0.00,,,0.00,0.000000,,2013-05-25 06:52:00,